Date String (YYYY-MM-DD hh:mm:ss) UTC,Instrument flags,absolute air pressure of the measurement (hPa),sample flow rate (lpm),inlet stack bypass flow (lpm),air temperature of the measurement (°C),ambient temperature measured by the external sensor (°C),aerosol sample conditioner tube jacket temperature (°C),OPC LED temperature (°C),internal box temperature (°C),relative humidity of the measurement (%),span deviation,mass concentration of particles derived from Lorenz-Mie calculation of OPC scattering (μg/m³),mass concentration of particles derived from Lorenz-Mie calculation of OPC scattering (μg/m³),mass concentration of particles derived from Lorenz-Mie calculation of OPC scattering (μg/m³)
DateTimeUTC,F1_M11,P_M11,Q1_M11,Q2_M11,T1_M11,T2_M11,T3_M11,T4_M11,T5_M11,U1_M11,ZSPAN_M11,X0_M11,X2_M11,X1_M11
2023-07-16 23:00:00,SystemResetWarning,0833.7,5.00,000.00,028.8,025.4,000.0,037.0,030.2,29.0,-000.0,0019.10,0009.81,0008.96
2023-07-16 23:01:00,SystemResetWarning,0833.6,5.01,000.00,028.7,024.9,000.0,036.9,030.1,27.9,-000.0,0020.09,0009.82,0008.95
2023-07-16 23:02:00,SystemResetWarning,0833.6,5.01,000.00,028.7,025.1,000.0,036.9,030.0,28.3,-000.0,0020.00,0009.83,0008.96
2023-07-16 23:03:00,SystemResetWarning,0833.5,5.00,000.00,028.6,025.6,000.0,036.9,030.0,28.0,0000.1,0019.28,0009.86,0008.97
2023-07-16 23:04:00,SystemResetWarning,0833.6,5.00,000.00,028.6,026.0,000.0,037.0,030.1,28.6,-000.2,0019.35,0009.84,0008.97
2023-07-16 23:05:00,SystemResetWarning,0833.6,5.01,000.00,028.7,026.5,000.0,037.0,030.3,28.7,-000.5,0020.08,0009.77,0008.97
2023-07-16 23:06:00,SystemResetWarning,0833.6,5.00,000.00,028.7,026.9,000.0,037.0,030.4,28.8,-000.3,0020.22,0009.77,0008.96
2023-07-16 23:07:00,SystemResetWarning,0833.6,5.00,000.00,028.8,027.3,000.0,037.1,030.5,28.3,0000.2,0020.23,0009.80,0008.98
2023-07-16 23:08:00,SystemResetWarning,0833.7,5.01,000.00,028.8,027.6,000.0,037.1,030.6,28.2,-000.1,0019.88,0009.82,0008.98
2023-07-16 23:09:00,SystemResetWarning,0833.6,4.99,000.00,028.9,027.1,000.0,037.1,030.6,27.6,0000.0,0020.62,0009.83,0008.98
2023-07-16 23:10:00,SystemResetWarning,0833.6,5.00,000.00,028.8,025.4,000.0,036.9,030.3,28.1,0000.3,0020.56,0009.84,0008.97
2023-07-16 23:11:00,SystemResetWarning,0833.5,5.00,000.00,028.8,024.8,000.0,036.9,030.2,28.2,0000.3,0020.32,0009.86,0008.98
2023-07-16 23:12:00,SystemResetWarning,0833.5,5.01,000.00,028.7,025.0,000.0,036.9,030.0,29.1,0000.2,0019.71,0009.90,0008.98
2023-07-16 23:13:00,SystemResetWarning,0833.5,5.01,000.00,028.6,025.5,000.0,036.9,030.0,29.3,0000.1,0019.08,0009.90,0008.96
2023-07-16 23:14:00,SystemResetWarning,0833.5,4.99,000.00,028.6,026.0,000.0,037.0,030.2,29.5,-000.1,0018.81,0009.90,0008.96
2023-07-16 23:15:00,SystemResetWarning,0833.6,5.00,000.00,028.7,026.4,000.0,037.0,030.3,28.8,0000.1,0018.40,0009.93,0008.96
2023-07-16 23:16:00,SystemResetWarning,0833.6,5.00,000.00,028.7,026.8,000.0,037.0,030.4,29.2,0000.4,0017.57,0009.94,0008.96
2023-07-16 23:17:00,SystemResetWarning,0833.7,5.01,000.00,028.8,027.2,000.0,037.0,030.5,29.2,0000.5,0017.51,0009.90,0008.95
2023-07-16 23:18:00,SystemResetWarning,0833.7,4.99,000.00,028.8,027.5,000.0,037.1,030.6,29.9,0000.5,0018.07,0009.90,0008.93
2023-07-16 23:19:00,SystemResetWarning,0833.6,4.99,000.00,028.9,027.3,000.0,037.1,030.6,27.6,0000.4,0018.45,0009.89,0008.92
2023-07-16 23:20:00,SystemResetWarning,0833.7,5.00,000.00,028.8,025.7,000.0,037.0,030.4,28.4,0000.6,0018.02,0009.90,0008.93
2023-07-16 23:21:00,SystemResetWarning,0833.7,5.00,000.00,028.8,024.8,000.0,036.9,030.2,27.8,0000.4,0017.86,0009.91,0008.95
2023-07-16 23:22:00,SystemResetWarning,0833.7,5.01,000.00,028.7,025.0,000.0,036.9,030.0,28.5,0000.2,0018.59,0009.97,0008.95
2023-07-16 23:23:00,SystemResetWarning,0833.7,5.02,000.00,028.6,025.4,000.0,036.9,030.0,27.7,0000.3,0018.70,0009.95,0008.95
2023-07-16 23:24:00,SystemResetWarning,0833.7,5.00,000.00,028.6,025.9,000.0,037.0,030.2,27.5,0000.4,0018.83,0009.92,0008.95
2023-07-16 23:25:00,SystemResetWarning,0833.6,5.00,000.00,028.7,026.4,000.0,037.0,030.3,28.2,0000.4,0019.44,0009.94,0008.93
2023-07-16 23:26:00,SystemResetWarning,0833.6,5.00,000.00,028.7,026.8,000.0,037.0,030.4,27.2,0000.6,0019.57,0009.90,0008.91
2023-07-16 23:27:00,SystemResetWarning,0833.6,5.01,000.00,028.8,027.2,000.0,037.0,030.5,27.9,0000.6,0019.76,0009.88,0008.86
2023-07-16 23:28:00,SystemResetWarning,0833.6,5.00,000.00,028.8,027.5,000.0,037.1,030.6,27.5,0000.7,0019.78,0009.88,0008.79
2023-07-16 23:29:00,SystemResetWarning,0833.6,4.99,000.00,028.9,027.5,000.0,037.1,030.6,27.7,0000.6,0019.74,0009.82,0008.75
2023-07-16 23:30:00,SystemResetWarning,0833.6,5.00,000.00,028.9,025.9,000.0,037.0,030.4,28.5,0000.6,0019.69,0009.76,0008.70
2023-07-16 23:31:00,SystemResetWarning,0833.5,5.00,000.00,028.8,024.7,000.0,036.9,030.2,28.8,0000.5,0018.87,0009.72,0008.66
2023-07-16 23:32:00,SystemResetWarning,0833.5,5.02,000.00,028.7,024.9,000.0,036.9,030.1,27.4,0000.7,0019.85,0009.68,0008.61
2023-07-16 23:33:00,SystemResetWarning,0833.5,5.00,000.00,028.7,025.3,000.0,036.9,030.0,26.9,0001.0,0019.81,0009.61,0008.55
2023-07-16 23:34:00,SystemResetWarning,0833.5,4.99,000.00,028.7,025.8,000.0,037.0,030.1,27.8,0000.9,0020.02,0009.55,0008.50
2023-07-16 23:35:00,SystemResetWarning,0833.5,5.00,000.00,028.7,026.3,000.0,037.0,030.3,26.9,0000.8,0019.83,0009.49,0008.45
2023-07-16 23:36:00,SystemResetWarning,0833.5,5.01,000.00,028.7,026.7,000.0,037.0,030.4,26.7,0000.9,0019.33,0009.42,0008.40
2023-07-16 23:37:00,SystemResetWarning,0833.6,5.00,000.00,028.8,027.1,000.0,037.1,030.5,27.5,0001.0,0019.05,0009.36,0008.36
2023-07-16 23:38:00,SystemResetWarning,0833.6,5.00,000.00,028.8,027.4,000.0,037.1,030.6,27.4,0000.9,0019.05,0009.31,0008.33
2023-07-16 23:39:00,SystemResetWarning,0833.6,5.00,000.00,028.9,027.7,000.0,037.1,030.7,27.4,0000.8,0018.77,0009.25,0008.31
2023-07-16 23:40:00,SystemResetWarning,0833.6,4.99,000.00,028.9,027.1,000.0,037.1,030.6,27.5,0000.8,0018.98,0009.26,0008.29
2023-07-16 23:41:00,SystemResetWarning,0833.6,5.00,000.00,028.9,025.5,000.0,037.0,030.3,27.4,0000.8,0019.03,0009.28,0008.29
2023-07-16 23:42:00,SystemResetWarning,0833.5,5.01,000.00,028.8,024.9,000.0,036.9,030.2,27.2,0000.8,0018.74,0009.27,0008.29
2023-07-16 23:43:00,SystemResetWarning,0833.5,5.01,000.00,028.7,025.2,000.0,036.9,030.1,26.4,0000.5,0017.49,0009.24,0008.30
2023-07-16 23:44:00,SystemResetWarning,0833.5,4.99,000.00,028.7,025.6,000.0,037.0,030.1,27.1,0000.5,0016.51,0009.18,0008.30
2023-07-16 23:45:00,SystemResetWarning,0833.5,5.00,000.00,028.7,026.1,000.0,037.0,030.2,27.3,0000.6,0016.20,0009.18,0008.30
2023-07-16 23:46:00,SystemResetWarning,0833.5,5.01,000.00,028.7,026.5,000.0,037.0,030.3,27.9,0000.7,0016.14,0009.22,0008.30
2023-07-16 23:47:00,SystemResetWarning,0833.5,5.00,000.00,028.8,027.0,000.0,037.1,030.5,25.9,0000.7,0015.98,0009.20,0008.30
2023-07-16 23:48:00,SystemResetWarning,0833.6,4.99,000.00,028.8,027.3,000.0,037.1,030.6,25.7,0000.7,0016.74,0009.19,0008.29
2023-07-16 23:49:00,SystemResetWarning,0833.6,4.99,000.00,028.9,027.5,000.0,037.1,030.7,25.8,0000.7,0017.24,0009.18,0008.29
2023-07-16 23:50:00,SystemResetWarning,0833.6,5.00,000.00,028.9,026.4,000.0,037.0,030.5,25.2,0000.4,0017.50,0009.17,0008.30
2023-07-16 23:51:00,SystemResetWarning,0833.5,5.00,000.00,028.8,025.0,000.0,036.9,030.3,26.4,0000.5,0017.31,0009.12,0008.29
2023-07-16 23:52:00,SystemResetWarning,0833.4,5.01,000.00,028.8,024.9,000.0,036.9,030.1,29.2,0000.7,0016.67,0009.08,0008.28
2023-07-16 23:53:00,SystemResetWarning,0833.4,5.01,000.00,028.7,025.3,000.0,036.9,030.0,28.6,0001.1,0016.37,0008.99,0008.24
2023-07-16 23:54:00,SystemResetWarning,0833.5,4.99,000.00,028.7,025.7,000.0,037.0,030.1,26.8,0001.4,0017.11,0008.98,0008.19
2023-07-16 23:55:00,SystemResetWarning,0833.4,5.00,000.00,028.7,026.2,000.0,037.0,030.2,26.0,0001.3,0017.92,0008.93,0008.13
2023-07-16 23:56:00,SystemResetWarning,0833.4,5.00,000.00,028.7,026.7,000.0,037.0,030.4,26.3,0000.9,0018.32,0008.89,0008.09
2023-07-16 23:57:00,SystemResetWarning,0833.4,5.01,000.00,028.8,027.1,000.0,037.1,030.5,25.7,0000.8,0018.86,0008.84,0008.05
2023-07-16 23:58:00,SystemResetWarning,0833.4,4.99,000.00,028.8,027.4,000.0,037.1,030.6,26.3,0000.3,0018.96,0008.81,0008.02
2023-07-16 23:59:00,SystemResetWarning,0833.4,4.99,000.00,028.9,027.7,000.0,037.1,030.7,26.0,0000.2,0018.49,0008.78,0007.98
